{"data":{"norad_id":67861,"epoch":"2026-05-24T15:51:20.261088Z","epoch_age_seconds":100515,"freshness":"FRESH","line1":"1 67861U 26034M   26144.66065117  .00023726  00000+0  80952-3 0  9998","line2":"2 67861  53.1582 211.6232 0000874  80.9127 279.1973 15.30244516 15664","mean_motion":15.30244516,"eccentricity":8.74e-5,"inclination_deg":53.1582,"raan_deg":211.6232,"arg_perigee_deg":80.9127,"mean_anomaly_deg":279.1973,"bstar":0.00080952,"rev_number":1566,"period_min":94.102608108938,"perigee_km":474.48318453538,"apogee_km":475.68112724383,"semimajor_km":6853.2191558896,"source":"CELESTRAK","updated_at":"2026-05-25T13:38:21.727101Z"}}